Tracking 33190 objects as of 9-Feb-2026
HD Live streaming from Space Station
objects crossing your sky now

USA 579

Track USA 579 now!
10-day predictions


NORAD ID: 67491
Int'l Code: 2026-011H
Perigee: 460.4 km
Apogee: 463.2 km
Inclination: 70.0 °
Period: 93.7 minutes
Semi major axis: 6832 km
RCS: Unknown
Launch date: January 17, 2026
Source: United States (US)
Launch site: AIR FORCE WESTERN TEST RANGE (AFWTR)
Your satellite tracking list
Your tracking list is empty




NASA's NSSDC Master Catalog

Two Line Element Set (TLE):
1 67491U 26011H   26020.75512625 0.00000000  00000-0  00000-0 0    03
2 67491  69.9900 253.1898 0002000 245.3975 114.6024 15.37114500    00
Source of the keplerian elements: McCants